Home   Weather   Sharjah   Past weeks
Flag for United Arab Emirates

Past Weather in Sharjah, Sharjah, United Arab Emirates — Yesterday and Last 2 Weeks

Now
93 °F

Sunny.


Feels Like: 93 °F
Forecast: 92 / 84 °F
Wind: 12 mph from Southwest

Location: Sharjah International Airport

Current Time: May 22, 2019 at 10:59:49 am

Latest Report: May 22, 2019 at 10:00 am


Visibility: 10 mi

Pressure: 29.83 "Hg

Humidity: 32%

Dew Point: 59 °F

Location of SharjahLocation

Past Weather in Sharjah — Graph

°F

Sharjah Temperature Yesterday

Maximum temperature yesterday: 93 °F (at 3:00 pm)
Minimum temperature yesterday: 82 °F (at 6:00 am)
Average temperature yesterday: 88 °F

High & Low Weather Summary for the Past Weeks

 TemperatureHumidityPressure
High104 °F (May 12, 2:00 pm)84% (May 21, 6:00 am)29.86 "Hg (May 21, 6:00 am)
Low72 °F (May 9, 6:00 am)6% (May 12, 2:00 pm)29.65 "Hg (May 7, 4:00 pm)
Average89 °F40%29.72 "Hg
* Reported May 7 10:00 am — May 22 10:00 am, Sharjah. Weather by CustomWeather, © 2019

Note: Actual official high and low records may vary slightly from our data, if they occured in-between our weather recording intervals... More about our weather records

Advertising

Sharjah Weather History for the Previous 24 Hours

Scroll right to see more
 ConditionsComfort  
Time TempWeatherWind HumidityBarometerVisibility
10:00 am
Wed, May 22
93 °FSunny.12 mph32%29.83 "Hg10 mi
9:00 am91 °FSunny.9 mph36%29.83 "Hg10 mi
8:00 am84 °FClear.8 mph62%29.83 "Hg5 mi
7:00 am82 °FClear.6 mph70%29.83 "Hg5 mi
6:00 am81 °FClear.7 mph70%29.83 "Hg5 mi
5:00 am81 °FClear.5 mph66%29.80 "Hg10 mi
4:00 am81 °FClear.2 mph62%29.80 "Hg10 mi
3:00 am84 °FClear.5 mph58%29.80 "Hg10 mi
2:00 am84 °FPassing clouds.3 mph62%29.80 "HgN/A
1:00 am84 °FClear.2 mph66%29.83 "Hg10 mi
12:00 am86 °FPassing clouds.3 mph62%29.83 "HgN/A
11:00 pm
Tue, May 21
84 °FClear.2 mph74%29.86 "Hg10 mi
10:00 pm86 °FPassing clouds.6 mph62%29.83 "HgN/A
9:00 pm86 °FClear.7 mph70%29.83 "Hg5 mi
8:00 pm84 °FClear.12 mph74%29.80 "Hg5 mi
7:00 pm86 °FClear.12 mph66%29.80 "Hg5 mi
6:00 pm90 °FClear.9 mph52%29.80 "Hg5 mi
5:00 pm90 °FClear.16 mph52%29.80 "Hg5 mi
4:00 pm93 °FScattered clouds.13 mph39%29.77 "Hg5 mi
3:00 pm93 °FScattered clouds.13 mph41%29.80 "Hg4 mi
2:00 pm91 °FScattered clouds.15 mph49%29.83 "Hg3 mi
1:00 pm91 °FScattered clouds.14 mph52%29.83 "Hg4 mi
12:00 pm91 °FScattered clouds.14 mph52%29.83 "Hg4 mi
11:00 am90 °FScattered clouds.10 mph59%29.86 "Hg4 mi
10:00 am91 °FPassing clouds.15 mph49%29.86 "Hg4 mi
Weather by CustomWeather, © 2019

See weather overview